• In Hungary
  • List of Countries
  • For 7 days
  • Water Temperature
  • Satellite Maps
  • Weather Map
  • News
  • Weather Widgets
  • user-avatar
    Login

    Hourly Weather Pilchy

    Today, 18 October, Wednesday

    Time Temperature Precipitation Wind Pressure Humidity
    00:00 +13°C° 0 mm 3 mps 752 mmHg 90%
    01:00 +12°C° 0 mm 3 mps 752 mmHg 91%
    02:00 +12°C° 0 mm 3 mps 751 mmHg 92%
    03:00 +12°C° 0 mm 3 mps 751 mmHg 92%
    04:00 +12°C° 0 mm 3 mps 751 mmHg 93%
    05:00 +12°C° 0 mm 3 mps 751 mmHg 93%
    06:00 +12°C° 0 mm 3 mps 750 mmHg 94%
    07:00 +12°C° 0 mm 3 mps 750 mmHg 94%
    08:00 +13°C° 0 mm 3 mps 751 mmHg 86%
    09:00 +14°C° 0 mm 4 mps 751 mmHg 77%
    10:00 +17°C° 0 mm 4 mps 751 mmHg 68%
    11:00 +17°C° 0 mm 4 mps 751 mmHg 65%
    12:00 +18°C° 0 mm 4 mps 751 mmHg 61%
    13:00 +18°C° 0 mm 4 mps 751 mmHg 58%
    14:00 +17°C° 0 mm 3 mps 750 mmHg 62%
    15:00 +16°C° 0 mm 3 mps 750 mmHg 67%
    16:00 +15°C° 0 mm 2 mps 750 mmHg 71%
    17:00 +14°C° 0 mm 2 mps 750 mmHg 75%
    18:00 +13°C° 0 mm 1 mps 750 mmHg 80%
    19:00 +12°C° 0 mm 1 mps 750 mmHg 84%
    20:00 +12°C° 0 mm 1 mps 751 mmHg 86%
    21:00 +11°C° 0 mm 1 mps 751 mmHg 87%
    22:00 +11°C° 0 mm 1 mps 751 mmHg 89%
    23:00 +11°C° 0 mm 1 mps 751 mmHg 90%

    Tomorrow, 19 October, Thursday

    Time Temperature Precipitation Wind Pressure Humidity
    00:00 +10°C° 0 mm 1 mps 751 mmHg 91%
    01:00 +10°C° 0 mm 1 mps 751 mmHg 92%
    02:00 +10°C° 0 mm 1 mps 751 mmHg 93%
    03:00 +10°C° 0 mm 1 mps 751 mmHg 94%
    04:00 +10°C° 0 mm 1 mps 751 mmHg 94%
    05:00 +10°C° 0 mm 1 mps 751 mmHg 95%
    06:00 +10°C° 0 mm 1 mps 751 mmHg 95%
    07:00 +10°C° 0 mm 1 mps 751 mmHg 96%
    08:00 +11°C° 0 mm 1 mps 752 mmHg 91%
    09:00 +12°C° 0 mm 2 mps 752 mmHg 86%
    10:00 +13°C° 0 mm 2 mps 752 mmHg 81%
    11:00 +14°C° 0 mm 2 mps 752 mmHg 79%
    12:00 +14°C° 0 mm 2 mps 752 mmHg 77%
    13:00 +14°C° 0 mm 2 mps 752 mmHg 74%
    14:00 +14°C° 0 mm 2 mps 752 mmHg 75%
    15:00 +13°C° 0 mm 2 mps 752 mmHg 76%
    16:00 +13°C° 0 mm 2 mps 753 mmHg 77%
    17:00 +12°C° 0 mm 2 mps 753 mmHg 77%
    18:00 +10°C° 0 mm 3 mps 753 mmHg 77%
    19:00 +9°C° 0 mm 3 mps 754 mmHg 77%
    20:00 +8°C° 0 mm 3 mps 754 mmHg 77%
    21:00 +8°C° 0 mm 3 mps 754 mmHg 76%
    22:00 +7°C° 0 mm 3 mps 755 mmHg 76%
    23:00 +7°C° 0 mm 3 mps 755 mmHg 77%

    Day after tomorrow, 20 October, Friday

    Time Temperature Precipitation Wind Pressure Humidity
    00:00 +5°C° 0 mm 3 mps 755 mmHg 79%
    01:00 +5°C° 0 mm 3 mps 755 mmHg 81%
    02:00 +4°C° 0 mm 3 mps 755 mmHg 82%
    03:00 +4°C° 0 mm 3 mps 755 mmHg 84%
    04:00 +4°C° 0 mm 3 mps 755 mmHg 85%
    05:00 +4°C° 0 mm 3 mps 756 mmHg 85%
    06:00 +4°C° 0 mm 3 mps 756 mmHg 85%
    07:00 +4°C° 0 mm 3 mps 756 mmHg 85%
    08:00 +5°C° 0 mm 3 mps 757 mmHg 78%
    09:00 +7°C° 0 mm 4 mps 757 mmHg 71%
    10:00 +8°C° 0 mm 4 mps 757 mmHg 64%
    11:00 +10°C° 0 mm 4 mps 757 mmHg 61%
    12:00 +11°C° 0 mm 4 mps 757 mmHg 58%
    13:00 +11°C° 0 mm 4 mps 757 mmHg 54%
    14:00 +11°C° 0 mm 3 mps 756 mmHg 58%
    15:00 +10°C° 0 mm 3 mps 756 mmHg 62%
    16:00 +9°C° 0 mm 3 mps 756 mmHg 66%
    17:00 +8°C° 0 mm 3 mps 757 mmHg 69%
    18:00 +7°C° 0 mm 3 mps 757 mmHg 72%
    19:00 +5°C° 0 mm 3 mps 757 mmHg 75%
    20:00 +5°C° 0 mm 3 mps 757 mmHg 77%
    21:00 +5°C° 0 mm 3 mps 757 mmHg 78%
    22:00 +4°C° 0 mm 3 mps 757 mmHg 80%
    23:00 +4°C° 0 mm 3 mps 757 mmHg 81%

    21 October, Saturday

    Time Temperature Precipitation Wind Pressure Humidity
    00:00 +4°C° 0 mm 3 mps 757 mmHg 81%
    01:00 +4°C° 0 mm 3 mps 757 mmHg 82%
    02:00 +4°C° 0 mm 3 mps 757 mmHg 83%
    03:00 +3°C° 0 mm 3 mps 757 mmHg 84%
    04:00 +3°C° 0 mm 3 mps 756 mmHg 85%
    05:00 +3°C° 0 mm 3 mps 756 mmHg 83%
    06:00 +4°C° 0 mm 3 mps 757 mmHg 82%
    07:00 +4°C° 0 mm 4 mps 757 mmHg 80%
    08:00 +5°C° 0 mm 4 mps 757 mmHg 77%
    09:00 +6°C° 0 mm 4 mps 757 mmHg 74%
    10:00 +7°C° 0 mm 4 mps 757 mmHg 71%
    11:00 +8°C° 0 mm 4 mps 757 mmHg 69%
    12:00 +10°C° 0 mm 4 mps 756 mmHg 68%
    13:00 +10°C° 0 mm 4 mps 756 mmHg 67%
    14:00 +10°C° 0 mm 4 mps 756 mmHg 69%
    15:00 +8°C° 0 mm 4 mps 756 mmHg 71%
    16:00 +9°C° 0 mm 3 mps 756 mmHg 73%
    17:00 +8°C° 0 mm 3 mps 756 mmHg 75%
    18:00 +7°C° 0 mm 4 mps 756 mmHg 77%
    19:00 +6°C° 0 mm 4 mps 756 mmHg 79%
    20:00 +6°C° 0 mm 4 mps 756 mmHg 80%
    21:00 +6°C° 0 mm 4 mps 756 mmHg 81%
    22:00 +5°C° 0 mm 4 mps 756 mmHg 81%
    23:00 +5°C° 0 mm 4 mps 756 mmHg 82%

    22 October, Sunday

    Time Temperature Precipitation Wind Pressure Humidity
    00:00 +5°C° 0 mm 4 mps 756 mmHg 82%
    01:00 +4°C° 0 mm 4 mps 756 mmHg 82%
    02:00 +4°C° 0 mm 4 mps 755 mmHg 83%
    03:00 +4°C° 0 mm 4 mps 755 mmHg 83%
    04:00 +4°C° 0 mm 4 mps 755 mmHg 84%
    05:00 +4°C° 0 mm 4 mps 754 mmHg 83%
    06:00 +4°C° 0 mm 4 mps 754 mmHg 83%
    07:00 +4°C° 0 mm 4 mps 754 mmHg 83%
    08:00 +5°C° 0 mm 4 mps 754 mmHg 79%
    09:00 +7°C° 0 mm 4 mps 754 mmHg 75%
    10:00 +8°C° 0 mm 5 mps 753 mmHg 70%
    11:00 +9°C° 0 mm 5 mps 753 mmHg 69%
    12:00 +11°C° 0 mm 4 mps 753 mmHg 67%
    13:00 +12°C° 0 mm 4 mps 752 mmHg 66%
    14:00 +11°C° 0.1 mm 4 mps 752 mmHg 69%
    15:00 +11°C° 0.1 mm 3 mps 752 mmHg 73%
    16:00 +10°C° 0.1 mm 3 mps 752 mmHg 77%
    17:00 +10°C° 0.3 mm 3 mps 751 mmHg 80%
    18:00 +10°C° 0.3 mm 3 mps 751 mmHg 83%
    19:00 +9°C° 0.3 mm 3 mps 751 mmHg 86%
    20:00 +9°C° 0.4 mm 3 mps 751 mmHg 88%
    21:00 +9°C° 0.4 mm 2 mps 751 mmHg 90%
    22:00 +9°C° 0.4 mm 2 mps 751 mmHg 91%
    23:00 +9°C° 0.3 mm 2 mps 750 mmHg 93%

    23 October, Monday

    Time Temperature Precipitation Wind Pressure Humidity
    00:00 +10°C° 0.3 mm 2 mps 750 mmHg 94%
    01:00 +10°C° 0.3 mm 2 mps 750 mmHg 95%
    02:00 +10°C° 0.7 mm 3 mps 750 mmHg 95%
    03:00 +10°C° 0.7 mm 3 mps 750 mmHg 95%
    04:00 +10°C° 0.7 mm 4 mps 749 mmHg 95%
    05:00 +8°C° 1.5 mm 4 mps 749 mmHg 94%
    06:00 +8°C° 1.5 mm 4 mps 749 mmHg 94%
    07:00 +8°C° 1.5 mm 4 mps 749 mmHg 93%
    08:00 +8°C° 0.7 mm 4 mps 749 mmHg 91%
    09:00 +8°C° 0.7 mm 5 mps 750 mmHg 89%
    10:00 +9°C° 0.7 mm 5 mps 750 mmHg 86%
    11:00 +9°C° 0.1 mm 5 mps 750 mmHg 85%
    12:00 +9°C° 0.1 mm 5 mps 750 mmHg 83%
    13:00 +9°C° 0.1 mm 6 mps 750 mmHg 81%
    14:00 +8°C° 0 mm 5 mps 750 mmHg 82%
    15:00 +8°C° 0 mm 5 mps 750 mmHg 82%
    16:00 +8°C° 0 mm 5 mps 750 mmHg 82%
    17:00 +7°C° 0 mm 5 mps 750 mmHg 84%
    18:00 +7°C° 0 mm 5 mps 751 mmHg 85%
    19:00 +6°C° 0 mm 5 mps 751 mmHg 87%
    20:00 +6°C° 0.1 mm 5 mps 750 mmHg 87%
    21:00 +6°C° 0.1 mm 5 mps 750 mmHg 87%
    22:00 +6°C° 0.1 mm 4 mps 750 mmHg 87%
    23:00 +7°C° 0.4 mm 5 mps 750 mmHg 87%
    Show more